Regional Weather Roundup
Issued by NWS

Home | Current Version | Previous Version | Text Only | Print | Product List | Glossary Off
Versions: 1 2 3 4 5 6 7 8 9 10 11 12 13 14 15 16 17 18 19 20 21 22 23 24 25 26 27 28 29 30 31 32 33 34 35 36 37 38 39 40 41 42 43 44 45 46 47 48 49 50

229
ASUS43 KLOT 280712
RWRIL

ILLINOIS REGIONAL WEATHER ROUNDUP
NATIONAL WEATHER SERVICE CHICAGO/ROMEOVILLE IL
100 AM CST TUE FEB 28 2017

NOTE: "FAIR" INDICATES FEW OR NO CLOUDS BELOW 12,000 FEET WITH NO
SIGNIFICANT WEATHER AND/OR OBSTRUCTIONS TO VISIBILITY.

* THESE STATIONS ARE NOT UNDER NWS QUALITY CONTROL. THEY ALSO MAY NOT
  REPORT WEATHER SUCH AS PRECIPITATION OR FOG.

ILZ001-002-007-009-015-016-024-280800-
NORTHWEST ILLINOIS

CITY           SKY/WX    TMP DP  RH WIND       PRES   REMARKS
MOLINE         CLOUDY    51  42  71 S15       29.83F
STERLING*      CLOUDY    47  43  86 SE7       29.88F
$$

ILZ003-004-008-010-011-017-018-280800-
NORTH CENTRAL ILLINOIS

CITY           SKY/WX    TMP DP  RH WIND       PRES   REMARKS
ROCKFORD       LGT RAIN  46  42  86 E9        29.93F FOG
FREEPORT*      CLOUDY    42  40  93 E13       29.89F
ROCHELLE*      CLOUDY    44  41  91 SE12      29.90F
DE KALB*       CLOUDY    44  41  89 SE12      29.93F
PERU*          CLOUDY    46  43  87 S14       29.92F
$$

ILZ005-006-012>014-019>023-280800-
NORTHEAST ILLINOIS

CITY           SKY/WX    TMP DP  RH WIND       PRES   REMARKS
CHICAGO-OHARE  CLOUDY    48  41  76 E7        29.98F
CHICAGO-MIDWAY DRIZZLE   48  40  73 SE10      29.98F
AURORA         CLOUDY    47  42  83 SE9       29.95F
LANSING*       LGT RAIN  46  44  93 SE10G17   29.99F
JOLIET*        CLOUDY    47  44  89 SE9       29.97S
WAUKEGAN       CLOUDY    40  37  89 SE7       29.98F
DUPAGE AIRPORT CLOUDY    47  40  76 SE9       29.95F
KANKAKEE*      CLOUDY    45  42  90 SE13      30.00S
WHEELING       LGT RAIN  47  40  76 E7        29.98F
MORRIS*        LGT RAIN  47  43  87 SE10      29.95S
ROMEOVILLE*    CLOUDY    46  44  95 S12       29.98R
NORTHERLY ISL    N/A     41  37  86 E5          N/A
$$

LMZ740>746-280800-
SOUTHERN LAKE MICHIGAN

STATION/POSITION SKY/WX   TEMP    WIND        PRES    VSBY  WAVE
                          AIR SEA DIR/SP/G                  HT/PER
                          (F)     (DEG/KT/KT) (MB)    (MI)  (FT/S)
HARRISON CRIB              41     120/  7/  9   N/A
BURNHAM HARBOR             41      CALM  /  9   N/A
CALUMET HARBOR                    130/ 10/ 14 1014.9F
BURNS HARBOR               47     170/ 13/ 18 1017.3F
MICHIGAN CITY              45     120/ 11/ 13   N/A
$$

ILZ025>027-034>036-040-047-049-050-058-095>099-280800-
WEST-CENTRAL ILLINOIS

CITY           SKY/WX    TMP DP  RH WIND       PRES   REMARKS
QUINCY         PTCLDY    54  47  77 S14       29.86S
GALESBURG*     CLOUDY    50  45  83 SE9       29.86F
MACOMB*        CLOUDY    53  47  82 S13       29.88S
JACKSONVILLE*  CLOUDY    55  49  81 S14G20    29.90S
PITTSFIELD*    CLOUDY    56  50  79 S15G22    29.90R
$$

ILZ028>032-037-038-041>044-048-051>054-059>061-280800-
CENTRAL ILLINOIS

CITY           SKY/WX    TMP DP  RH WIND       PRES   REMARKS
PONTIAC        CLOUDY    47  47  98 SE13      29.95F
BLOOMINGTON    CLOUDY    47  45  93 SE18      29.94F
DECATUR        CLOUDY    50  45  83 S15       29.95F
PEORIA         CLOUDY    51  47  86 S12G23    29.90F
LACON*         RAIN      48  46  93 S29G36    29.89F
LINCOLN*       CLOUDY    50  48  91 SE13      29.92F
SPRINGFIELD    MOCLDY    54  48  80 S18G29    29.91F
TAYLORVILLE    CLOUDY    51  48  89 S15G21    29.94F
$$

ILZ033-039-045-046-055>057-062-063-280800-
EAST-CENTRAL ILLINOIS

CITY           SKY/WX    TMP DP  RH WIND       PRES   REMARKS
CHAMPAIGN      CLOUDY    47  43  86 E10       29.97F
RANTOUL*       RAIN      48  46  91 S12       29.98S
MATTOON        CLOUDY    51  46  83 S13G20    29.97F
PARIS*         CLOUDY    47  43  86 SE12      30.01S THUNDER
$$

ILZ079-100>102-280800-
SOUTHWEST ILLINOIS

CITY           SKY/WX    TMP DP  RH WIND       PRES   REMARKS
ALTON          CLOUDY    54  51  89 S10       29.95S
BELLEVILLE     LGT RAIN  54  54 100 VRB5      29.95F
CAHOKIA*       LGT RAIN  57  50  77 S5        29.95S
SPARTA*        CLOUDY    55  49  78 S18G24    29.98S
$$

ILZ064>066-069>071-074>076-080>082-084>086-088>090-092>094-280800-
SOUTH-CENTRAL ILLINOIS

CITY           SKY/WX    TMP DP  RH WIND       PRES   REMARKS
CARBONDALE     CLOUDY    55  50  83 S14       30.01S
CAIRO*         LGT RAIN  54  49  84 SW6       30.06R
EFFINGHAM*     CLOUDY    52  47  81 SE9G21    30.01S
MARION         CLOUDY    55  50  82 S14       30.03S
MT. VERNON     CLOUDY    54  49  83 S12       30.00F
CENTRALIA*     CLOUDY    54  50  87 S12G17    29.97F
SALEM*         LGT RAIN  55  48  79 S9        29.99S
METROPOLIS*    LGT RAIN  55  49  83 CALM      30.05F
$$

ILZ067-068-072-073-078-083-087-091-280800-
SOUTHEAST ILLINOIS

CITY           SKY/WX    TMP DP  RH WIND       PRES   REMARKS
LAWRENCEVILLE  CLOUDY    52  44  74 S10       30.05S
FLORA*         CLOUDY    53  47  81 S16       30.01F
FAIRFIELD*     RAIN      52  47  84 SE8       30.01S
HARRISBURG*    CLOUDY    55  48  77 S15       30.02F
ROBINSON*      CLOUDY    52  44  74 S15       30.05R
CARMI*         LGT RAIN  52  46  79 S9        30.04R
$$

ABBREVIATIONS USED IN REMARKS
   TC - TEMPERATURE IN CELSIUS
  WCI - WIND CHILL INDEX
   HX - HEAT INDEX
  VSB - VISIBILITY
$$





USA.gov is the U.S. government's official web portal to all federal, state and local government web resources and services.